EW0802 Weather Reports


Display with metric or nautical units.
time (UTC)temp
F
wind
direction
speed
MPH
gust
MPH
rain 1hr
in
rain 24hr
in
rain mn
in
humidity
%
barometer
mb
20260902223033 100 157 0.0 3.0 0.00 0.00 0.00 38 1009.1
20260902221529 100 146 0.0 3.0 0.00 0.00 0.00 39 1009.2
20260902220027 100 65 1.0 8.0 0.00 0.00 0.00 38 1009.4
20260902214526 100 40 1.0 5.0 0.00 0.00 0.00 38 1009.4
20260902213024 100 51 1.0 4.0 0.00 0.00 0.00 38 1009.6
20260902211522 100 63 1.0 5.0 0.00 0.00 0.00 38 1009.9
20260902210022 100 66 1.0 3.0 0.00 0.00 0.00 40 1009.9
20260902204524 100 65 0.0 5.0 0.00 0.00 0.00 40 1010.1
20260902203020 99 61 0.0 8.0 0.00 0.00 0.00 39 1010.3
20260902201519 99 355 1.0 5.0 0.00 0.00 0.00 37 1010.5
20260902200019 100 145 1.0 5.0 0.00 0.00 0.00 39 1010.7
20260902194519 100 40 1.0 3.0 0.00 0.00 0.00 41 1011.0
20260902193008 100 60 1.0 5.0 0.00 0.00 0.00 40 1011.2
20260902191505 101 60 1.0 3.0 0.00 0.00 0.00 40 1011.7
20260902190113 100 47 1.0 6.0 0.00 0.00 0.00 41 1011.7
20260902184556 99 17 0.0 5.0 0.00 0.00 0.00 41 1012.0
20260902183101 98 338 0.0 5.0 0.00 0.00 0.00 43 1012.1
20260902181550 99 79 1.0 5.0 0.00 0.00 0.00 42 1012.5
20260902180047 97 93 0.0 4.0 0.00 0.00 0.00 43 1012.8
20260902174542 97 78 0.0 3.0 0.00 0.00 0.00 46 1013.1
20260902173038 97 29 0.0 7.0 0.00 0.00 0.00 46 1013.4
20260902171535 96 171 1.0 4.0 0.00 0.00 0.00 46 1013.6
20260902170032 95 293 0.0 3.0 0.00 0.00 0.00 48 1013.8
20260902164527 95 142 1.0 3.0 0.00 0.00 0.00 50 1013.9
20260902163024 94 128 1.0 2.0 0.00 0.00 0.00 50 1014.1
20260902161518 93 152 0.0 2.0 0.00 0.00 0.00 52 1014.2
20260902160017 92 135 1.0 5.0 0.00 0.00 0.00 54 1014.2
20260902154510 91 256 0.0 3.0 0.00 0.00 0.00 53 1014.2
20260902153007 90 112 0.0 1.0 0.00 0.00 0.00 56 1014.2
20260902151501 89 148 0.0 2.0 0.00 0.00 0.00 59 1014.2
20260902150057 87 98 0.0 2.0 0.00 0.00 0.00 61 1014.1
20260902144552 86 134 0.0 2.0 0.00 0.00 0.00 65 1014.1
20260902143048 85 115 0.0 5.0 0.00 0.00 0.00 67 1014.2
20260902141544 83 81 0.0 2.0 0.00 0.00 0.00 70 1014.1
20260902140046 81 152 0.0 4.0 0.00 0.00 0.00 72 1014.1
20260902134537 80 114 0.0 2.0 0.00 0.00 0.00 74 1014.1
20260902133034 80 81 0.0 2.0 0.00 0.00 0.00 75 1014.2
20260902131534 79 88 0.0 1.0 0.00 0.00 0.00 76 1014.2
20260902130030 78 124 0.0 2.0 0.00 0.00 0.00 77 1013.8
20260902124527 78 105 0.0 1.0 0.00 0.00 0.00 76 1013.6
20260902123024 78 360 0.0 0.0 0.00 0.00 0.00 76 1013.5
20260902121522 78 132 0.0 0.0 0.00 0.00 0.00 75 1013.3
20260902120023 78 132 0.0 1.0 0.00 0.00 0.00 75 1013.4
20260902114526 79 174 0.0 1.0 0.00 0.00 0.00 75 1013.4
20260902113019 79 138 0.0 0.0 0.00 0.00 0.00 74 1013.3
20260902111517 79 138 0.0 0.0 0.00 0.00 0.00 73 1013.3
20260902110018 79 138 0.0 0.0 0.00 0.00 0.00 73 1013.3
20260902104523 80 138 0.0 0.0 0.00 0.00 0.00 72 1013.4
20260902103013 80 165 0.0 0.0 0.00 0.00 0.00 71 1013.4
20260902101511 81 165 0.0 0.0 0.00 0.00 0.00 70 1013.2
20260902100010 81 157 0.0 0.0 0.00 0.00 0.00 69 1013.3
20260902094517 81 157 0.0 0.0 0.00 0.00 0.00 69 1013.2
20260902093006 82 157 0.0 0.0 0.00 0.00 0.00 68 1013.1
20260902091505 82 135 0.0 2.0 0.00 0.00 0.00 67 1013.2
20260902090004 82 159 0.0 2.0 0.00 0.00 0.00 67 1013.3
20260902084502 83 192 1.0 3.0 0.00 0.00 0.00 66 1013.2
20260902083107 83 157 0.0 3.0 0.00 0.00 0.00 66 1013.1
20260902081604 83 143 0.0 5.0 0.00 0.00 0.00 65 1013.3
20260902080107 84 181 2.0 5.0 0.00 0.00 0.00 65 1013.2
20260902074557 84 82 1.0 4.0 0.00 0.00 0.00 64 1013.2
20260902073057 84 145 0.0 7.0 0.00 0.00 0.00 63 1013.3
20260902071556 85 155 1.0 7.0 0.00 0.00 0.00 63 1013.4
20260902070056 85 167 1.0 5.0 0.00 0.00 0.00 62 1013.3
20260902064558 85 140 1.0 7.0 0.00 0.00 0.00 62 1013.3
20260902063048 85 161 0.0 6.0 0.00 0.00 0.00 62 1013.2
20260902061553 85 114 1.0 6.0 0.00 0.00 0.00 62 1013.1
20260902060047 86 146 0.0 7.0 0.00 0.00 0.00 61 1013.1
20260902054547 86 185 0.0 7.0 0.00 0.00 0.00 61 1013.0
20260902053043 86 180 2.0 6.0 0.00 0.00 0.00 60 1012.9
20260902051538 87 163 1.0 7.0 0.00 0.00 0.00 60 1012.7
20260902050039 87 155 0.0 4.0 0.00 0.00 0.00 59 1012.8
20260902044535 88 113 1.0 8.0 0.00 0.00 0.00 58 1012.8
20260902043035 88 157 2.0 8.0 0.00 0.00 0.00 56 1012.8
20260902041535 88 107 2.0 6.0 0.00 0.00 0.00 55 1012.6
20260902040034 89 113 0.0 0.0 0.00 0.00 0.00 54 1012.4
20260902034533 89 112 0.0 0.0 0.00 0.00 0.00 53 1012.4
20260902033040 89 159 0.0 0.0 0.00 0.00 0.00 53 1012.4
20260902031534 89 136 0.0 0.0 0.00 0.00 0.00 53 1012.3
20260902030032 90 144 0.0 0.0 0.00 0.00 0.00 52 1012.2
20260902024532 90 131 0.0 0.0 0.00 0.00 0.00 52 1011.9
20260902023031 90 84 0.0 0.0 0.00 0.00 0.00 50 1011.7
20260902021536 91 84 0.0 0.0 0.00 0.00 0.00 49 1011.5
20260902020030 91 84 0.0 0.0 0.00 0.00 0.00 48 1011.3
20260902014537 92 84 0.0 0.0 0.00 0.00 0.00 47 1011.1
20260902013030 92 130 0.0 1.0 0.00 0.00 0.00 47 1011.0
20260902011536 93 100 0.0 1.0 0.00 0.00 0.00 47 1010.9
20260902010042 93 106 0.0 1.0 0.00 0.00 0.00 46 1010.7
20260902004533 94 49 0.0 2.0 0.00 0.00 0.00 46 1010.7
20260902003025 94 163 0.0 2.0 0.00 0.00 0.00 45 1010.8
20260902001524 95 252 0.0 1.0 0.00 0.00 0.00 45 1010.9
20260902000032 95 78 0.0 2.0 0.00 0.00 0.00 44 1011.0
20260901234546 96 133 0.0 3.0 0.00 0.00 0.00 44 1011.1
20260901233019 96 57 1.0 4.0 0.00 0.00 0.00 42 1011.1
20260901231524 98 92 1.0 2.0 0.00 0.00 0.00 42 1011.1
20260901230018 101 48 1.0 6.0 0.00 0.00 0.00 39 1011.1